Terminal Aerodrome Forecast
Issued by NWS Tampa Bay Area, FL

Home | Current Version | Previous Version | Text Only | Print | Product List | Glossary On
Versions: 1 2 3 4 5 6 7 8 9 10 11 12 13 14 15 16 17 18 19 20 21 22 23 24 25 26 27 28 29
000
FTUS42 KTBW 041700
TAFTPA
TAF
KTPA 041739Z 0418/0518 19010KT P6SM FEW030
     FM050000 21005KT P6SM SCT250
     FM051100 14003KT P6SM SCT007
     FM051500 17006KT P6SM BKN035=

USA.gov is the U.S. government's official web portal to all federal, state and local government web resources and services.